Location: Unspecified
(0.0000°N, 0.0000°E)
Time: 16:22:34
(UTC+00:00)

A-11 Canister half - All Passes

Search period start: 19 October 2020 00:00
Search period end: 29 October 2020 00:00
Orbit: 1526 x 1682 km, 47.3° (Epoch: 18 October)

Date Brightness Start Highest point End Pass type
(mag) Time Alt. Az. Time Alt. Az. Time Alt. Az.
19 Oct - 00:19:01 10° N 00:26:48 28° NE 00:34:44 10° ESE visible
19 Oct - 02:22:14 10° NW 02:31:41 62° SW 02:41:29 10° SSE visible
19 Oct - 04:36:11 10° SW 04:37:32 10° SW 04:38:53 10° SW visible
19 Oct - 11:11:48 10° SSE 11:13:27 10° SE 11:15:06 10° SE daylight
19 Oct - 13:09:30 10° SSW 13:19:16 62° SE 13:28:39 10° NE daylight
19 Oct - 15:16:19 10° WSW 15:24:08 28° NW 15:31:48 10° N daylight
19 Oct - 23:57:38 10° N 00:05:08 26° NE 00:12:46 10° ESE night (unlit)
20 Oct - 02:00:33 10° NW 02:10:01 66° SW 02:19:52 10° SSE visible
20 Oct - 04:12:52 10° WSW 04:15:46 11° SW 04:18:42 10° SSW visible
20 Oct - 12:47:53 10° SSW 12:57:36 58° SE 13:06:58 10° NE daylight
20 Oct - 14:54:22 10° WSW 15:02:28 30° NW 15:10:24 10° N daylight
20 Oct - 23:36:16 10° N 23:43:26 24° NE 23:50:46 10° E night (unlit)
21 Oct - 01:38:52 10° NW 01:48:22 71° SW 01:58:15 10° SSE visible
21 Oct - 03:50:11 10° WSW 03:54:01 13° SW 03:57:53 10° SSW visible
21 Oct - 12:26:17 10° SSW 12:35:57 54° SE 12:45:14 10° NE daylight
21 Oct - 14:32:26 10° WSW 14:40:48 32° NW 14:48:59 10° N daylight
21 Oct - 23:14:55 10° N 23:21:46 22° NE 23:28:44 10° E night (unlit)
22 Oct - 01:17:12 10° NW 01:26:43 75° SW 01:36:36 10° SE visible
22 Oct - 03:27:44 10° WSW 03:32:15 14° SW 03:36:52 10° SSW visible
22 Oct - 12:04:42 10° SSW 12:14:16 51° SE 12:23:30 10° ENE daylight
22 Oct - 14:10:32 10° WSW 14:19:09 35° NW 14:27:32 10° NNE daylight
22 Oct - 22:53:37 10° N 23:00:05 20° NE 23:06:39 10° E night (unlit)
23 Oct - 00:55:33 10° NW 01:05:03 80° SW 01:14:56 10° SE visible
23 Oct - 03:05:25 10° WSW 03:10:31 15° SW 03:15:44 10° SSW visible
23 Oct - 11:43:07 10° SSW 11:52:36 47° SE 12:01:45 10° ENE daylight
23 Oct - 13:48:39 10° WSW 13:57:29 38° NW 14:06:04 10° NNE daylight
23 Oct - 22:32:20 10° N 22:38:23 19° NE 22:44:31 10° E night (unlit)
24 Oct - 00:33:54 10° NW 00:43:25 85° SW 00:53:17 10° SE visible
24 Oct - 02:43:11 10° W 02:48:47 17° SW 02:54:30 10° S visible
24 Oct - 11:21:33 10° SSW 11:30:56 44° SE 11:39:58 10° ENE daylight
24 Oct - 13:26:47 10° WSW 13:35:49 40° NW 13:44:35 10° NNE daylight
24 Oct - 22:11:07 10° N 22:16:42 17° NE 22:22:20 10° E night (unlit)
25 Oct - 00:12:16 10° NW 00:21:46 89° NE 00:31:37 10° SE visible
25 Oct - 02:21:03 10° W 02:27:03 18° SW 02:33:14 10° S visible
25 Oct - 11:00:00 10° SSW 11:09:15 41° SE 11:18:11 10° ENE daylight
25 Oct - 13:04:56 10° WSW 13:14:09 44° NW 13:23:05 10° NNE daylight
25 Oct - 21:49:58 10° NNE 21:55:01 15° NE 22:00:05 10° E night (unlit)
25 Oct - 23:50:40 10° NW 00:00:07 84° NE 00:09:55 10° SE night (unlit)
26 Oct - 01:58:56 10° W 02:05:20 20° SW 02:11:55 10° S visible
26 Oct - 10:38:27 10° SSW 10:47:34 38° SE 10:56:23 10° ENE daylight
26 Oct - 12:43:07 10° WSW 12:52:29 47° NW 13:01:35 10° NNE daylight
26 Oct - 21:28:54 10° NNE 21:33:18 14° NE 21:37:44 10° ENE night (unlit)
26 Oct - 23:29:03 10° NW 23:38:28 79° NE 23:48:14 10° SE night (unlit)
27 Oct - 01:36:54 10° W 01:43:38 21° SW 01:50:33 10° S visible
27 Oct - 10:16:56 10° SSW 10:25:53 36° SE 10:34:33 10° ENE daylight
27 Oct - 12:21:18 10° WSW 12:30:50 50° NW 12:40:03 10° NNE daylight
27 Oct - 21:07:57 10° NNE 21:11:35 13° NE 21:15:14 10° ENE night (unlit)
27 Oct - 23:07:27 10° NNW 23:16:50 74° NE 23:26:31 10° SE night (unlit)
28 Oct - 01:14:53 10° W 01:21:55 23° SW 01:29:10 10° S visible
28 Oct - 09:55:25 10° SSW 10:04:11 33° SE 10:12:42 10° ENE daylight
28 Oct - 11:59:30 10° SW 12:09:10 54° NW 12:18:31 10° NNE daylight
28 Oct - 20:47:17 10° NNE 20:49:52 11° NE 20:52:28 10° ENE night (unlit)
28 Oct - 22:45:53 10° NNW 22:55:11 69° NE 23:04:48 10° SE night (unlit)
